Location: Obersdorf
(47.4079°N, 10.2781°E)
Time: 00:22:47
(UTC+01:00)

ISS - Visible Passes

Search period start: 29 November 2021 00:00
Search period end: 09 December 2021 00:00
Orbit: 417 x 423 km, 51.6° (Epoch: 28 November)

Date Brightness Start Highest point End Pass type
(mag) Time Alt. Az. Time Alt. Az. Time Alt. Az.
29 Nov -3.1 17:05:11 10° W 17:08:28 44° N 17:11:45 10° ENE visible
29 Nov -2.5 18:42:27 10° WNW 18:44:54 35° NNW 18:44:54 35° NNW visible
30 Nov -3.0 17:55:11 10° WNW 17:58:25 39° N 17:59:38 28° NE visible
30 Nov -0.6 19:32:06 10° WNW 19:32:37 14° WNW 19:32:37 14° WNW visible
01 Dec -2.9 17:07:53 10° WNW 17:11:07 38° N 17:14:19 10° ENE visible
01 Dec -2.7 18:44:54 10° WNW 18:47:22 42° NW 18:47:22 42° NW visible
02 Dec -3.4 17:57:42 10° WNW 18:01:01 50° NNE 18:02:11 33° ENE visible
02 Dec -0.5 19:34:36 10° WNW 19:35:10 14° WNW 19:35:10 14° WNW visible
03 Dec -3.2 17:10:26 10° WNW 17:13:42 43° N 17:16:58 10° E visible
03 Dec -3.0 18:47:18 10° WNW 18:50:04 52° W 18:50:04 52° W visible
04 Dec -3.8 18:00:02 10° WNW 18:03:27 87° NNE 18:05:04 29° ESE visible
04 Dec -0.4 19:37:26 10° W 19:38:05 13° W 19:38:05 13° W visible
05 Dec -3.7 17:12:47 10° WNW 17:16:10 65° NNE 17:19:32 10° ESE visible
05 Dec -2.0 18:49:50 10° W 18:52:49 29° SW 18:53:16 28° SSW visible
06 Dec -2.6 18:02:25 10° WNW 18:05:40 43° SSW 18:08:41 11° SE visible
07 Dec -3.3 17:15:04 10° WNW 17:18:26 65° SSW 17:21:48 10° SE visible
07 Dec -0.6 18:53:18 10° WSW 18:54:42 12° SW 18:56:06 10° SSW visible
08 Dec -0.9 18:05:09 10° W 18:07:36 19° SW 18:10:03 10° S visible
